Wetbulb
46.41 46.70 46.00 47.13 51.17 52.55 49.48 44.30 35.15 45.53 45.68 33.83 35.53 32.85 35.42 40.39 39.63 42.85 42.07 40.27 39.03 36.64 35.49 34.28 34.23 34.19 37.97 41.28 38.55 34.37 38.91 35.42 28.33 32.83 38.52 40.45 38.00 36.34 34.11 23.02 25.75 27.22 25.39 22.22
45.61 45.54 46.14 46.80 47.35 47.69 42.12 38.79 37.60 44.83 43.11 31.29 31.35 35.43 36.74 39.44 39.10 40.11 39.51 38.20 39.45 39.60 37.20 32.12 36.43 37.24 42.26 40.25 38.25 35.99 37.65 31.43 24.50 28.95 33.41 37.12 34.92 36.15 35.80 33.67 31.58 25.42 18.20 19.41
45.00 45.49 45.50 46.45 47.39 47.49 42.18 34.33 29.41 35.49 38.96 38.01 33.98 33.20 34.48 35.21 41.47 40.24 40.68 39.11 39.39 37.47 35.74 38.15 34.78 35.54 39.73 40.37 39.57 41.60 40.61 34.25 29.75 20.69 26.89 33.06 32.19 35.39 35.59 32.99 25.58 22.27 20.35 23.68
45.49 45.52 45.40 45.94 46.63 47.16 43.52 37.27 32.49 34.59 29.17 31.04 34.29 35.90 36.02 35.39 34.70 38.81 40.56 37.12 36.61 34.66 32.84 34.48 33.42 36.82 35.98 38.44 38.90 38.70 37.10 30.71 34.03 34.72 36.18 35.03 33.59 34.51 32.41 30.73 30.47 26.39 28.02 26.26
45.16 45.18 45.03 45.50 46.20 46.79 41.32 33.33 33.57 34.13 33.20 36.03 35.38 35.76 34.76 34.69 36.73 35.92 35.21 34.76 37.43 36.92 33.42 35.14 32.66 35.36 34.24 32.85 36.20 35.45 37.41 30.85 33.32 31.04 35.89 34.00 31.94 34.06 33.45 32.38 32.34 31.18 29.45 28.49
44.57 45.15 44.14 44.80 45.87 45.90 39.69 41.28 41.91 36.74 33.79 34.09 34.03 33.17 36.25 36.88 37.76 37.98 39.43 37.56 36.19 35.68 37.60 38.20 39.99 39.01 38.51 37.15 34.36 33.56 33.63 31.32 28.93 26.41 34.02 30.68 24.27 28.54 30.95 30.91 31.89 30.87 25.84 28.51
44.57 44.39 43.43 44.05 44.93 45.56 42.85 42.85 42.37 37.16 30.21 34.53 35.26 36.66 38.13 37.52 37.29 34.65 38.32 38.55 36.18 39.40 43.05 42.16 40.77 39.37 38.85 38.72 37.73 39.57 34.88 32.77 31.87 28.11 31.08 20.96 27.29 35.86 34.61 27.79 29.91 28.94 30.49 30.07
45.14 44.26 43.92 44.86 44.53 45.84 43.54 44.57 42.01 38.84 31.91 36.68 37.20 37.28 37.22 37.75 38.87 36.59 37.56 40.20 40.89 41.47 39.32 33.95 30.90 31.14 33.45 35.67 37.56 38.34 39.06 34.54 28.16 28.42 27.23 27.78 31.24 33.49 30.99 28.43 26.46 31.72 30.86 33.02
44.73 44.37 44.54 44.57 44.97 45.66 44.12 45.06 45.58 41.89 36.08 35.48 39.52 37.14 37.76 33.67 32.57 34.53 36.84 41.41 42.40 40.35 34.99 30.73 25.90 24.43 28.58 28.53 33.05 39.55 38.53 37.13 30.44 27.76 24.52 21.92 28.96 35.65 37.78 34.89 23.44 33.79 33.08 32.41
44.76 44.76 44.93 45.22 45.70 45.85 44.28 42.78 46.58 43.68 36.21 39.47 40.01 35.67 35.55 38.30 36.05 33.32 35.19 36.59 36.44 38.73 30.41 28.72 26.71 26.83 33.88 27.28 27.88 28.91 30.21 29.20 26.74 25.97 25.15 27.81 34.83 36.57 37.20 23.44 22.34 33.26 31.87 31.64
45.56 45.51 45.61 45.45 45.68 46.13 44.04 42.38 46.41 44.12 38.57 39.61 42.30 42.76 38.13 39.22 37.35 32.44 35.60 34.33 34.79 33.78 29.67 30.22 29.97 29.24 30.63 31.10 33.38 30.81 29.41 26.91 25.19 26.89 24.23 22.08 37.40 35.66 28.41 27.23 33.19 32.87 31.53 32.41
45.35 45.77 45.66 45.35 45.71 46.06 45.51 40.47 49.31 49.57 40.67 39.61 43.75 43.91 44.71 44.20 42.32 38.59 36.93 34.84 35.19 36.35 32.21 32.05 33.29 30.63 31.21 31.41 26.63 36.61 26.05 32.66 27.24 28.08 26.08 33.01 34.78 33.07 34.23 33.81 31.76 33.16 32.22 33.28
45.33 45.59 45.54 44.78 45.50 45.67 45.19 43.10 46.65 44.54 39.20 38.91 39.25 39.27 43.51 46.08 45.16 44.11 34.43 36.47 39.66 38.90 40.24 36.16 35.04 31.66 32.77 28.15 28.73 30.18 34.98 38.33 29.07 29.68 31.46 31.35 32.77 33.98 34.28 33.80 32.70 33.15 33.12 33.04
45.31 45.24 44.95 44.90 45.11 45.99 45.70 45.38 46.28 45.07 39.86 33.33 36.43 45.15 42.29 46.72 46.19 45.02 44.19 42.01 42.55 41.57 39.70 35.12 34.13 30.52 35.95 31.23 33.54 31.76 34.18 34.27 29.72 29.22 32.18 32.69 32.28 32.64 33.58 31.89 32.49 31.97 31.96 31.21
45.08 44.95 44.64 44.18 44.31 45.61 45.45 45.75 44.83 44.47 39.55 33.08 34.78 40.97 43.68 44.81 43.92 43.36 43.29 41.42 38.70 36.54 34.63 32.69 29.89 33.45 34.10 34.61 35.72 29.88 35.21 30.67 25.26 22.87 30.95 30.06 30.45 34.03 34.59 30.80 30.84 31.42 30.39 29.04
45.32 44.01 42.75 44.52 44.99 46.09 43.07 35.87 44.41 42.78 43.96 35.69 29.78 38.94 40.02 42.16 42.51 41.53 40.86 40.19 38.47 37.26 35.28 31.97 34.24 37.66 33.96 27.22 27.28 35.52 36.48 36.58 35.48 30.63 34.14 33.06 33.17 35.23 35.16 33.23 32.41 31.77 30.32 29.56
44.01 43.13 43.61 44.53 45.30 42.06 39.18 37.57 41.43 43.62 43.51 35.54 29.88 31.34 38.69 42.10 40.86 38.70 38.08 39.56 37.82 37.23 34.79 33.25 31.99 32.32 34.82 29.28 26.93 33.55 34.92 35.59 34.99 35.05 34.10 30.84 32.44 30.74 34.13 31.67 30.99 31.04 29.15 28.59
43.86 44.83 44.71 44.86 44.92 43.79 38.80 41.78 43.95 43.67 41.77 39.34 28.87 30.37 32.47 40.17 33.36 31.72 38.05 34.93 36.58 35.33 34.30 34.04 32.03 31.96 33.17 26.93 32.75 33.60 34.91 34.69 34.06 35.55 34.57 32.68 33.34 33.26 32.89 30.76 29.21 27.22 25.42 25.37
43.88 43.25 44.16 42.08 40.19 36.80 38.46 44.29 44.36 44.09 40.96 32.36 29.99 27.45 24.25 38.13 34.22 34.04 33.84 34.98 26.88 34.62 30.02 31.28 32.60 29.23 26.04 31.55 32.67 32.92 33.78 32.50 33.92 35.34 33.71 32.91 30.20 29.73 28.99 28.84 28.51 26.07 25.04 24.69
42.56 42.19 35.84 32.05 36.73 42.80 42.71 40.96 34.59 36.34 37.35 38.29 31.36 33.77 27.63 34.75 29.48 29.90 29.57 31.49 26.55 23.46 29.64 33.15 28.11 27.33 33.96 36.21 35.58 35.28 34.45 34.64 34.92 30.31 29.61 29.94 27.77 27.38 27.83 28.23 28.32 27.21 25.95 25.04
39.05 33.06 31.93 37.63 42.95 38.79 36.17 30.78 29.43 31.28 29.24 34.97 35.47 33.28 31.24 36.03 27.41 25.99 29.76 24.36 27.23 22.34 27.20 26.63 25.35 25.82 30.67 34.69 34.25 35.26 34.75 34.93 33.82 32.78 31.83 31.36 30.01 28.71 27.68 27.36 26.87 25.76 24.68 22.36
39.27 38.12 40.07 39.14 36.21 32.61 28.35 26.61 28.69 29.00 26.68 31.19 31.19 32.23 34.59 33.87 35.26 27.98 27.93 25.97 25.62 25.23 30.30 23.38 22.47 28.60 33.33 34.08 33.23 32.85 32.77 33.18 32.91 33.59 31.54 30.78 31.05 29.45 27.31 25.86 25.00 22.96 21.29 16.96
39.43 36.87 30.91 31.00 27.80 20.46 21.23 18.06 25.62 24.67 29.00 31.60 31.41 28.14 32.07 33.27 33.74 28.05 25.38 20.96 21.06 29.99 20.20 20.76 26.93 30.73 32.94 33.44 33.28 31.86 32.40 31.39 31.08 30.34 29.67 29.52 27.42 25.96 24.90 18.68 17.05 15.61 13.01 10.34
31.47 28.60 18.21 21.41 19.03 23.69 28.49 29.72 28.30 30.16 30.56 31.32 30.98 29.17 29.79 29.85 28.13 26.67 18.36 25.21 27.07 19.17 15.84 22.82 27.41 30.49 30.80 31.12 31.45 31.32 29.64 28.11 26.55 22.52 20.79 19.26 19.45 15.78 14.04 16.64 14.87 13.32 11.06 7.14
29.15 28.12 20.50 21.24 28.86 28.31 30.27 30.32 29.98 30.56 31.53 30.98 29.98 31.26 32.24 28.31 24.05 29.17 24.11 19.53 18.21 22.18 21.26 30.33 27.26 30.73 30.70 30.26 30.50 28.56 25.39 24.96 21.76 18.49 16.82 15.02 14.99 16.09 11.64 11.05 12.06 11.73 10.08 8.07
30.03 29.62 24.78 27.02 25.41 25.96 30.21 29.45 26.86 31.90 32.49 31.14 30.76 28.85 25.35 24.48 25.17 24.70 20.64 22.66 19.72 23.33 30.77 32.23 28.21 27.29 26.90 27.13 26.37 23.67 22.95 22.53 20.53 17.83 16.47 15.47 14.55 14.55 13.00 12.14 11.98 9.66 9.95 8.09
28.44 27.71 31.67 30.71 26.89 29.31 31.07 31.21 29.02 34.70 32.31 29.51 29.20 25.17 25.73 29.05 23.80 24.53 26.72 22.73 29.11 32.10 29.84 28.05 29.94 27.58 25.61 24.09 22.76 21.48 22.63 21.85 20.46 18.00 16.56 13.37 14.34 15.05 16.35 13.65 10.04 11.50 11.05 8.50
MSLP
1010.98 1010.44 1009.06 1007.81 1005.26 1005.07 1007.43 1008.81 1010.13 1010.82 1012.21 1014.35 1013.88 1012.61 1010.89 1011.48 1011.02 1010.47 1009.88 1009.99 1010.36 1009.66 1010.36 1010.47 1011.09 1011.12 1011.19 1010.43 1011.28 1012.26 1012.99 1013.38 1013.30 1012.81 1012.64 1012.82 1013.24 1013.85 1015.38 1017.21 1018.70 1020.08 1021.50 1023.32
1010.51 1010.00 1009.17 1008.47 1007.67 1006.33 1006.89 1008.10 1009.90 1010.84 1010.64 1011.17 1011.71 1011.84 1011.33 1010.95 1010.46 1009.78 1009.63 1009.65 1009.48 1010.42 1010.29 1010.51 1010.75 1011.20 1011.42 1011.46 1012.08 1012.94 1013.34 1013.61 1013.83 1013.58 1013.36 1013.16 1013.80 1014.77 1015.71 1017.08 1018.59 1020.35 1022.10 1023.53
1010.14 1009.71 1009.48 1009.02 1008.59 1007.61 1008.05 1008.67 1009.70 1010.47 1010.66 1010.02 1010.26 1010.84 1010.44 1010.18 1009.80 1009.35 1008.98 1009.11 1009.24 1009.64 1010.28 1010.43 1010.75 1011.80 1012.68 1011.98 1012.76 1013.44 1013.57 1013.83 1013.94 1013.88 1013.77 1014.05 1014.65 1015.11 1016.04 1017.35 1019.15 1020.37 1021.66 1023.32
1009.75 1009.78 1009.43 1009.25 1008.47 1008.28 1008.44 1008.00 1007.56 1008.08 1009.00 1009.82 1009.27 1009.48 1009.43 1009.60 1009.04 1008.79 1008.57 1008.90 1008.90 1009.52 1010.09 1010.91 1011.27 1011.94 1012.71 1013.09 1013.53 1013.77 1014.16 1014.38 1013.99 1013.94 1014.09 1014.75 1015.16 1015.73 1016.75 1017.90 1019.21 1020.31 1021.74 1022.78
1009.39 1009.63 1009.57 1009.29 1008.82 1008.51 1008.40 1008.19 1007.74 1008.28 1008.44 1009.60 1009.27 1008.85 1008.61 1008.38 1008.46 1007.94 1007.74 1008.28 1008.94 1009.53 1009.87 1010.45 1010.54 1011.48 1012.39 1013.27 1014.17 1014.25 1014.46 1014.59 1014.50 1014.59 1014.58 1015.22 1016.09 1016.59 1017.35 1018.51 1019.58 1020.63 1021.63 1022.65
1009.15 1009.34 1009.52 1009.34 1009.05 1008.72 1008.67 1008.11 1007.25 1007.51 1008.44 1008.94 1009.00 1008.07 1007.94 1007.89 1007.82 1007.63 1007.52 1008.16 1008.95 1009.36 1009.30 1009.58 1009.91 1010.99 1012.16 1012.95 1013.69 1014.26 1014.62 1015.00 1015.06 1015.20 1015.36 1016.26 1017.35 1017.36 1017.97 1019.09 1020.19 1020.89 1021.89 1022.64
1008.81 1009.11 1009.37 1009.29 1009.15 1008.98 1008.91 1008.38 1007.77 1007.41 1008.16 1008.01 1008.07 1008.06 1007.97 1007.72 1007.55 1007.67 1007.67 1007.97 1008.66 1009.29 1009.02 1009.72 1010.83 1011.62 1012.31 1012.86 1013.37 1013.70 1014.14 1014.83 1015.18 1016.00 1016.31 1017.29 1017.75 1017.95 1018.19 1019.50 1020.80 1021.52 1022.18 1022.75
1008.55 1008.95 1009.18 1009.04 1008.81 1008.67 1008.58 1008.15 1007.86 1007.67 1007.64 1007.56 1008.01 1007.49 1007.69 1007.98 1008.15 1008.52 1008.47 1008.53 1009.15 1009.25 1009.92 1011.09 1012.23 1013.03 1013.56 1013.41 1013.53 1013.61 1013.66 1014.29 1015.44 1016.28 1016.75 1017.73 1017.88 1018.14 1018.90 1019.49 1021.23 1021.79 1022.24 1022.61
1008.47 1008.84 1008.89 1008.77 1008.71 1008.53 1008.43 1008.01 1007.74 1007.73 1007.32 1007.17 1007.33 1007.37 1007.88 1008.53 1009.18 1009.56 1010.03 1009.79 1009.54 1010.05 1010.98 1012.00 1012.82 1013.52 1013.57 1013.64 1013.41 1013.40 1013.76 1014.43 1015.77 1016.20 1016.88 1017.46 1017.18 1017.49 1018.34 1019.28 1021.17 1021.63 1022.13 1022.81
1008.39 1008.66 1008.75 1008.58 1008.42 1008.38 1008.40 1008.10 1007.68 1007.73 1007.64 1007.25 1007.43 1007.51 1007.73 1008.02 1009.08 1010.05 1010.36 1010.35 1010.68 1010.86 1011.76 1012.82 1013.28 1013.08 1012.90 1013.01 1013.21 1013.69 1014.50 1015.38 1016.14 1016.81 1017.36 1017.64 1017.41 1018.02 1018.63 1020.59 1021.85 1021.96 1022.51 1023.18
1008.33 1008.38 1008.53 1008.39 1008.35 1008.28 1008.44 1008.07 1007.52 1007.52 1007.33 1007.48 1007.36 1007.62 1008.09 1007.92 1008.84 1009.65 1010.30 1010.72 1011.32 1011.92 1012.67 1013.25 1012.46 1012.23 1012.14 1012.44 1013.06 1013.58 1014.52 1015.60 1016.63 1017.36 1018.03 1018.61 1017.96 1018.73 1019.70 1020.94 1021.60 1022.23 1022.86 1023.69
1008.27 1008.28 1008.34 1008.47 1008.42 1008.38 1008.52 1008.11 1006.91 1006.97 1007.51 1008.24 1007.99 1008.07 1008.01 1008.22 1007.93 1008.97 1010.21 1010.49 1010.89 1011.57 1012.31 1012.25 1012.04 1011.99 1011.99 1012.54 1013.59 1013.72 1014.71 1015.07 1016.53 1017.80 1018.73 1019.15 1019.05 1019.59 1020.37 1021.03 1021.83 1022.54 1023.18 1023.84
1008.28 1008.31 1008.43 1008.26 1008.17 1008.06 1008.52 1007.84 1007.03 1007.14 1007.96 1008.97 1008.91 1008.98 1008.12 1007.35 1007.58 1007.99 1009.38 1010.25 1010.53 1010.98 1011.22 1011.81 1012.02 1012.06 1012.20 1012.82 1013.36 1014.06 1014.69 1015.10 1016.87 1017.84 1019.56 1019.86 1020.48 1020.88 1021.23 1021.66 1022.42 1022.88 1023.35 1023.87
1008.40 1008.31 1008.44 1008.36 1008.14 1007.90 1007.59 1007.45 1006.95 1006.86 1007.62 1009.09 1009.53 1008.45 1008.18 1008.25 1008.02 1008.43 1008.87 1009.80 1010.27 1010.72 1011.21 1011.90 1012.35 1012.47 1012.11 1012.88 1013.28 1014.21 1014.68 1015.73 1017.37 1018.72 1019.76 1020.52 1021.30 1021.58 1022.04 1022.53 1022.87 1023.42 1024.01 1024.53
1008.34 1008.33 1008.29 1008.28 1007.96 1007.64 1007.28 1007.08 1007.13 1007.18 1007.73 1009.23 1010.06 1009.74 1009.64 1009.21 1009.04 1009.37 1009.68 1010.12 1010.78 1011.41 1012.03 1012.48 1012.91 1012.65 1012.73 1013.23 1013.88 1015.08 1015.03 1016.20 1017.24 1018.61 1019.22 1019.79 1021.09 1021.89 1022.65 1023.18 1023.57 1024.11 1024.67 1025.34
1008.47 1008.46 1008.53 1008.28 1008.00 1007.76 1007.84 1008.20 1007.70 1007.67 1007.61 1008.75 1010.73 1011.16 1010.67 1010.13 1009.96 1010.24 1010.56 1010.82 1011.16 1011.73 1012.52 1013.11 1013.28 1013.14 1013.37 1014.16 1015.38 1016.13 1015.97 1016.23 1016.62 1018.17 1018.92 1019.81 1021.01 1022.08 1022.76 1023.31 1023.99 1024.60 1025.17 1025.81
1008.67 1008.54 1008.30 1008.10 1007.77 1008.06 1008.49 1009.21 1009.03 1008.32 1007.94 1009.19 1011.06 1011.98 1011.66 1011.24 1011.14 1011.48 1011.55 1011.40 1011.86 1012.21 1012.94 1013.48 1013.74 1013.83 1013.85 1014.48 1015.88 1016.57 1016.82 1017.23 1017.77 1018.41 1019.29 1021.04 1021.58 1022.31 1023.03 1023.92 1024.54 1025.23 1025.96 1026.54
1008.49 1008.71 1008.55 1008.37 1008.23 1008.38 1009.04 1009.13 1008.71 1008.46 1008.22 1009.29 1011.54 1012.67 1012.66 1012.16 1012.49 1012.98 1012.63 1012.88 1013.10 1013.45 1013.72 1013.71 1014.29 1014.39 1014.44 1015.43 1015.99 1016.56 1017.24 1018.03 1018.70 1019.11 1019.83 1020.73 1021.82 1022.78 1023.53 1024.39 1025.12 1025.97 1026.77 1027.28
1009.03 1008.92 1008.76 1008.72 1008.88 1009.47 1009.42 1008.81 1008.36 1008.03 1008.82 1009.79 1011.36 1012.34 1013.07 1012.74 1013.14 1013.65 1013.90 1014.11 1014.82 1014.60 1014.72 1014.57 1014.85 1015.02 1015.16 1015.35 1015.93 1016.64 1017.41 1017.98 1018.81 1019.68 1020.60 1021.46 1022.29 1023.21 1023.99 1024.62 1025.28 1026.16 1027.05 1027.71
1009.14 1009.16 1009.59 1010.08 1010.14 1009.92 1009.46 1009.11 1009.12 1009.13 1009.48 1010.00 1011.42 1011.92 1012.77 1013.05 1013.78 1014.69 1015.34 1015.45 1015.60 1015.81 1015.52 1015.11 1015.41 1015.67 1015.11 1014.97 1015.52 1016.37 1017.34 1018.10 1018.95 1020.09 1021.18 1022.01 1022.83 1023.49 1024.24 1024.82 1025.34 1026.19 1027.05 1027.96
1009.74 1010.37 1010.73 1010.45 1010.06 1010.21 1010.49 1010.90 1010.98 1011.07 1011.37 1011.72 1012.06 1012.34 1012.63 1013.03 1014.05 1015.03 1015.55 1016.20 1016.17 1016.31 1016.05 1015.95 1016.19 1015.89 1015.46 1015.35 1015.81 1016.63 1017.39 1018.24 1019.25 1020.14 1021.02 1021.95 1022.76 1023.53 1024.44 1025.12 1025.68 1026.52 1027.45 1028.52
1009.92 1010.04 1010.48 1010.63 1010.78 1011.24 1011.68 1012.05 1011.86 1011.76 1012.53 1012.36 1012.70 1013.05 1013.29 1013.65 1013.99 1015.30 1015.82 1016.38 1016.51 1016.33 1016.07 1016.46 1016.26 1015.41 1015.24 1015.66 1016.22 1017.05 1017.72 1018.54 1019.50 1020.27 1021.24 1022.11 1022.97 1023.66 1024.64 1025.52 1026.43 1027.30 1028.18 1029.34
1010.14 1010.50 1011.20 1011.52 1012.13 1012.27 1012.47 1012.79 1012.75 1012.97 1012.92 1013.10 1013.19 1013.58 1013.90 1014.32 1014.76 1015.75 1016.25 1016.50 1016.71 1016.30 1016.63 1016.65 1016.12 1015.71 1015.79 1016.19 1016.86 1017.73 1018.29 1019.08 1019.97 1020.92 1021.61 1022.43 1023.33 1023.97 1025.09 1026.28 1027.31 1028.19 1029.25 1030.06
1010.61 1011.48 1012.60 1012.95 1013.29 1013.43 1013.59 1013.46 1013.39 1013.50 1013.44 1013.52 1013.62 1013.96 1014.37 1014.98 1015.71 1016.23 1016.73 1016.66 1016.58 1016.77 1017.00 1016.58 1016.27 1016.21 1016.53 1016.94 1017.64 1018.48 1019.44 1020.09 1021.15 1022.25 1022.89 1023.64 1024.29 1025.20 1026.17 1026.71 1027.69 1028.66 1029.85 1030.60
1011.68 1012.30 1013.52 1014.13 1014.36 1014.35 1014.33 1014.05 1014.04 1014.12 1013.74 1013.93 1014.09 1014.33 1014.67 1015.61 1016.12 1016.32 1016.71 1016.86 1016.82 1016.68 1016.30 1016.29 1016.35 1016.70 1017.12 1017.83 1018.58 1019.39 1020.34 1021.19 1022.24 1023.27 1024.04 1024.81 1025.40 1026.07 1027.08 1027.56 1028.05 1028.78 1029.80 1030.60
1012.86 1013.69 1014.31 1014.61 1014.76 1015.05 1015.03 1014.95 1014.96 1014.65 1014.29 1013.99 1014.10 1014.64 1015.09 1015.61 1015.81 1016.38 1016.45 1016.55 1016.47 1016.50 1016.48 1016.66 1017.05 1017.52 1017.97 1018.71 1019.43 1020.22 1020.98 1021.90 1022.99 1023.86 1024.60 1025.39 1025.98 1026.58 1027.30 1027.93 1028.36 1028.91 1029.55 1030.29
1013.99 1014.90 1015.00 1015.06 1015.42 1015.70 1015.59 1015.37 1015.21 1014.80 1014.86 1014.90 1014.67 1014.95 1015.12 1015.46 1015.80 1016.17 1015.98 1016.38 1016.58 1016.73 1017.30 1017.20 1017.46 1018.12 1018.82 1019.56 1020.25 1020.92 1021.66 1022.55 1023.46 1024.25 1025.08 1025.85 1026.09 1026.59 1027.35 1028.12 1028.47 1028.71 1029.23 1029.68
Wind_Speed
9 16 24 30 21 11 22 9 9 13 21 11 9 17 26 14 20 19 12 9 13 3 14 12 10 9 5 7 8 6 1 2 3 7 7 4 4 6 4 5 1 1 3 2
6 15 19 24 26 20 3 10 4 13 22 17 13 7 15 17 20 16 13 8 10 18 7 5 8 6 3 10 6 4 5 3 2 3 4 3 2 5 6 5 3 4 3 3
4 10 13 19 22 20 4 3 6 5 10 2 18 17 14 17 13 18 14 13 4 6 5 3 7 6 2 6 6 5 2 1 6 7 5 4 5 6 6 4 2 2 4 4
5 7 12 15 21 21 3 1 3 4 13 5 15 20 15 22 11 10 13 3 6 5 6 7 6 6 7 5 2 3 2 3 3 3 7 4 3 6 7 3 3 2 4 5
8 3 7 14 16 17 2 1 4 1 13 7 13 17 14 22 19 13 16 8 11 10 7 15 15 11 5 5 3 5 2 2 3 6 4 9 4 4 10 6 4 6 5 4
9 5 4 9 13 10 2 3 3 5 13 10 11 14 12 18 13 6 14 10 10 14 10 4 8 7 10 7 8 7 6 3 2 3 11 7 3 5 4 7 5 2 3 3
10 5 2 8 8 9 2 2 2 2 6 10 10 17 12 13 6 5 4 5 5 3 14 14 11 8 4 9 9 6 6 4 2 4 7 3 4 1 6 9 5 3 5 1
9 8 6 7 8 11 1 1 2 1 5 10 11 15 10 9 6 5 2 2 6 7 7 8 6 4 2 7 11 8 3 4 3 4 1 3 7 7 7 5 5 7 6 2
10 10 8 6 9 9 1 2 1 1 4 9 7 13 16 10 8 5 4 3 5 5 4 4 4 5 5 6 5 5 2 3 4 1 3 6 1 10 9 6 2 5 5 5
11 10 9 8 8 7 2 3 1 1 3 5 13 7 17 6 7 5 4 4 3 5 4 2 4 5 9 8 8 7 4 2 3 2 1 2 6 9 8 4 6 9 8 7
7 7 8 3 8 9 5 5 3 3 3 2 5 7 9 3 7 6 6 5 3 3 4 5 5 4 6 5 7 8 5 5 3 3 3 4 8 8 5 6 8 9 8 6
7 7 7 5 8 9 4 5 3 5 4 6 10 4 6 2 8 9 4 6 5 5 3 2 1 1 3 6 3 5 3 4 6 2 3 4 9 9 9 8 10 9 9 7
6 8 5 3 9 9 3 4 2 8 8 8 7 2 4 7 7 6 6 1 3 3 4 2 1 3 4 4 3 5 3 5 6 5 6 11 9 8 9 8 8 7 5 6
5 5 4 7 7 9 9 1 3 1 5 5 4 4 7 6 10 8 5 6 4 4 3 2 2 3 2 2 4 4 4 5 7 7 12 12 9 7 8 8 8 10 10 8
7 4 3 7 8 11 5 2 3 3 4 4 8 8 6 6 7 10 8 6 4 3 3 3 1 2 5 2 5 2 2 6 5 6 11 7 10 11 10 6 6 7 9 9
10 4 4 6 7 5 1 6 5 8 3 5 5 4 6 8 8 8 6 2 2 3 4 1 2 2 4 3 3 4 6 7 6 5 6 13 13 12 12 8 8 8 9 9
10 5 5 5 1 4 3 4 4 9 2 5 4 3 5 3 5 4 4 6 2 3 2 2 2 2 3 2 4 7 9 12 14 15 17 10 8 9 10 11 10 12 9 7
7 4 6 9 9 8 4 2 4 7 3 5 5 2 4 4 2 3 3 3 4 5 1 3 3 3 3 3 12 11 12 14 12 7 7 10 13 10 10 10 11 11 8 7
8 6 5 2 4 4 3 12 13 2 4 4 4 5 3 0 2 2 5 4 4 3 3 1 3 0 1 11 14 14 14 7 11 11 13 13 13 10 9 8 9 10 8 8
5 6 5 4 2 6 9 6 6 6 4 5 3 3 2 5 1 2 3 2 2 2 3 2 3 2 3 9 12 14 11 12 12 14 13 12 10 9 8 7 6 11 8 8
3 3 1 2 2 3 4 3 3 1 4 3 1 4 5 1 4 2 2 2 1 2 4 4 1 2 4 7 10 13 11 13 12 10 8 10 11 10 8 7 7 10 10 10
4 4 2 2 3 3 5 1 3 3 3 2 4 3 3 2 4 4 1 2 3 1 1 4 2 3 5 10 9 10 11 10 12 10 11 11 11 10 8 8 9 8 11 10
1 3 4 3 3 5 4 3 2 2 1 1 2 2 3 3 4 3 4 3 3 3 3 3 4 4 5 10 10 8 8 10 9 8 7 9 8 9 8 8 8 10 9 7
4 4 4 3 3 4 3 3 3 2 3 3 3 2 4 1 3 2 5 3 3 2 1 5 3 5 7 7 7 8 8 9 11 9 8 9 10 8 7 10 10 11 10 7
4 5 4 3 2 3 1 2 3 4 2 3 3 3 4 1 3 1 3 4 2 4 4 0 2 6 8 7 6 8 8 8 9 6 7 8 8 9 7 5 7 8 9 8
4 6 3 1 4 2 3 3 2 3 3 2 3 3 3 1 4 3 4 4 4 2 2 1 3 3 4 5 6 7 8 9 8 6 7 6 7 9 8 6 6 7 9 8
4 3 2 2 4 3 2 1 1 2 3 2 1 3 4 3 2 1 1 2 1 4 3 2 4 4 5 6 7 7 8 8 8 6 6 5 5 8 8 8 6 7 7 7
Wind_Direction
344 354 10 2 8 209 167 170 189 157 148 164 195 204 205 218 213 246 235 196 268 309 201 196 182 206 209 107 115 137 140 184 185 198 208 194 59 133 112 116 267 168 178 215
336 3 22 21 13 30 80 143 115 164 164 181 192 174 200 224 224 223 206 239 214 217 245 166 159 162 242 120 121 129 182 258 107 155 86 96 187 133 140 132 119 218 130 231
270 17 11 18 19 29 57 127 142 141 202 266 178 181 192 203 222 237 214 210 195 166 188 21 153 132 294 112 96 81 41 271 159 184 182 151 144 146 91 107 133 222 198 168
250 39 21 14 15 13 349 253 101 150 186 200 185 177 170 194 194 220 199 205 174 148 153 175 198 172 121 89 101 85 86 228 206 216 157 121 133 166 114 134 148 163 163 143
241 107 33 11 13 358 29 347 131 119 157 142 178 180 195 189 205 178 185 163 203 185 189 192 177 143 146 164 145 159 224 260 241 199 151 127 146 178 149 139 136 124 162 142
251 187 40 359 360 4 356 279 273 134 167 162 176 194 182 197 195 216 184 173 159 204 196 165 138 133 145 158 151 187 164 176 130 243 135 109 14 210 104 104 76 63 226 120
238 221 160 315 334 345 214 278 308 91 171 174 188 170 202 188 152 105 89 76 111 173 103 76 83 101 145 138 171 186 166 186 132 138 143 195 243 45 113 120 124 39 89 123
214 179 220 281 310 331 283 282 17 4 157 168 184 173 146 124 81 108 59 51 126 111 79 99 75 67 35 194 194 220 185 149 131 165 121 131 167 166 150 140 188 179 177 158
188 194 241 252 280 317 295 255 172 275 122 189 179 155 157 149 170 88 133 62 109 77 93 90 124 171 176 192 182 185 207 74 132 191 181 203 303 142 158 98 172 150 105 91
196 209 209 250 289 326 338 280 238 277 116 180 157 178 169 163 93 105 115 114 65 45 76 84 165 198 177 163 172 174 160 96 164 300 130 59 124 115 103 126 202 100 99 84
181 206 180 274 293 314 8 285 245 219 117 85 175 130 175 111 131 144 182 76 337 56 125 186 230 187 203 116 150 156 147 139 182 195 139 182 121 125 167 173 103 111 99 120
193 191 142 216 258 274 309 249 171 211 90 112 88 89 64 234 167 129 177 158 162 164 152 226 193 1 90 124 152 137 153 184 144 105 141 84 46 95 113 116 120 126 130 151
202 175 141 242 276 298 329 272 276 104 98 55 63 344 343 9 113 139 126 93 140 93 167 152 181 88 104 141 169 97 66 104 106 103 119 103 93 80 98 99 119 128 121 110
179 131 131 259 299 316 342 161 269 219 111 96 37 63 29 33 59 62 89 114 59 99 79 104 131 111 45 54 126 109 175 90 120 80 127 113 113 105 93 85 90 87 78 71
135 109 20 324 333 333 316 26 20 33 116 112 109 67 32 48 67 76 76 92 93 75 38 47 60 43 48 41 76 24 116 156 140 198 160 131 145 129 141 116 110 120 121 97
123 116 266 311 324 354 30 30 335 6 13 95 65 337 34 36 48 62 71 86 70 93 100 169 40 6 97 93 91 82 70 73 133 143 121 115 131 140 156 147 130 103 86 110
130 201 289 310 347 71 72 157 253 318 328 86 76 51 334 353 52 12 25 25 23 89 102 80 111 28 58 78 117 124 95 91 94 105 112 96 120 138 135 104 102 99 88 85
135 147 62 55 73 110 67 269 311 314 79 78 94 88 43 351 61 25 358 31 30 12 24 26 91 358 42 71 125 120 113 115 118 109 105 117 125 128 137 131 127 129 127 114
132 79 18 37 22 43 299 312 309 305 109 110 107 134 167 282 62 99 16 51 42 322 34 41 84 160 202 158 145 140 140 134 139 120 114 124 131 143 140 150 153 136 142 139
80 33 35 17 319 322 325 7 23 14 351 38 76 93 129 113 102 50 71 7 167 78 250 56 68 248 272 137 149 144 143 140 144 132 145 147 149 153 163 165 157 147 149 141
59 59 108 264 294 28 31 29 78 306 34 69 74 106 117 24 104 157 118 185 225 117 247 121 227 270 224 140 131 141 144 150 149 149 145 152 157 160 170 166 139 132 127 122
143 136 125 9 35 45 78 37 339 50 149 355 111 127 100 34 80 96 323 115 40 182 157 80 250 250 150 138 126 132 135 145 145 153 159 160 164 154 143 132 129 109 116 119
64 58 57 53 331 55 120 166 71 73 80 220 114 68 123 48 55 54 72 87 224 105 68 211 234 172 124 123 122 111 114 114 107 98 110 122 122 115 124 111 111 120 119 127
77 75 43 86 2 50 25 21 74 271 91 101 98 60 109 123 57 144 94 244 93 53 103 233 202 167 133 116 127 118 131 118 106 107 104 107 114 109 107 130 140 133 140 154
54 38 56 68 95 35 1 301 47 349 318 85 53 47 90 86 94 119 104 31 193 209 219 150 159 137 132 129 133 119 115 115 114 124 118 123 124 126 118 127 133 129 137 149
50 41 50 34 75 42 60 18 28 333 329 24 50 107 79 215 135 108 203 174 205 263 95 89 93 84 105 119 111 117 120 120 125 124 127 134 138 144 146 134 137 146 153 161
51 40 334 24 73 73 50 35 348 318 43 40 37 86 196 116 97 197 177 89 123 111 44 25 95 111 119 111 113 120 126 126 130 129 129 145 136 126 143 158 174 161 166 169